Tracking 33198 objects as of 13-Feb-2026
HD Live streaming from Space Station
objects crossing your sky now

NOAA 17 DEB

Track NOAA 17 DEB now!
10-day predictions


NORAD ID: 49487
Int'l Code: 2002-032DR
Perigee: 657.5 km
Apogee: 692.5 km
Inclination: 98.8 °
Period: 98.1 minutes
Semi major axis: 7045 km
RCS: Unknown
Launch date: June 24, 2002
Source: United States (US)
Launch site: AIR FORCE WESTERN TEST RANGE (AFWTR)

Note: This is SATELLITE DEBRIS
Your satellite tracking list
Your tracking list is empty




NASA's NSSDC Master Catalog

Two Line Element Set (TLE):
1 49487U 02032DR  26044.01160344  .00012879  00000-0  22492-2 0  9992
2 49487  98.8221  73.7144 0024866 325.0287  34.9282 14.67876073258555
Source of the keplerian elements: AFSPC